Location: Unspecified
(43.8044°N, 11.0278°E)
Time: 11:27:39
(UTC+02:00)

Resurs 1-4 Rocket - Visible Passes

Search period start: 25 May 2018 00:00
Search period end: 04 June 2018 00:00
Orbit: 799 x 814 km, 98.5° (Epoch: 24 May)

Date Brightness Start Highest point End Pass type
(mag) Time Alt. Az. Time Alt. Az. Time Alt. Az.
25 May 3.7 02:22:29 10° NE 02:26:50 25° E 02:29:10 19° SE visible
25 May 2.7 04:01:49 10° N 04:06:50 45° WNW 04:10:15 19° SW visible
26 May 4.3 01:58:57 10° NE 02:01:59 15° E 02:04:19 12° ESE visible
26 May 2.1 03:37:03 10° N 03:42:21 73° WNW 03:45:25 26° SSW visible
27 May 2.2 03:12:28 10° NNE 03:17:47 70° ESE 03:20:33 29° S visible
27 May 3.9 04:53:36 10° NNW 04:57:03 18° WNW 05:00:29 10° W visible
28 May 3.0 02:48:04 10° NNE 02:53:08 42° E 02:55:43 25° SSE visible
28 May 3.3 04:28:20 10° N 04:32:45 28° WNW 04:36:48 12° WSW visible
29 May 3.7 02:23:58 10° NE 02:28:23 26° E 02:30:53 18° SE visible
29 May 2.7 04:03:21 10° N 04:08:22 43° WNW 04:11:58 18° SW visible
30 May 4.3 02:00:23 10° NE 02:03:32 16° E 02:06:02 12° ESE visible
30 May 2.1 03:38:35 10° N 03:43:53 70° WNW 03:47:07 24° SSW visible
31 May 2.2 03:13:59 10° NNE 03:19:19 73° ESE 03:22:16 27° S visible
31 May 3.9 04:55:11 10° NNW 04:58:33 17° WNW 05:01:54 10° W visible
01 Jun 2.9 02:49:35 10° NNE 02:54:40 44° E 02:57:25 24° SSE visible
01 Jun 3.4 04:29:53 10° N 04:34:15 27° WNW 04:38:29 11° WSW visible
02 Jun 3.6 02:25:27 10° NE 02:29:55 27° E 02:32:34 18° SE visible
02 Jun 2.8 04:04:54 10° N 04:09:53 42° WNW 04:13:39 17° SW visible
03 Jun 4.2 02:01:47 10° NE 02:05:06 16° E 02:07:42 12° ESE visible
03 Jun 2.2 03:40:07 10° N 03:45:24 68° WNW 03:48:46 23° SSW visible
